Wind_Speed
15 16 17 17 18 19 19 20 20 20 21 22 22 22 22 22 21 20 20 20 19 19 18 18 18 18 19 19 20 20 20 19 19 20 20 21 21 21 21 21 20 19 19
21 20 19 19 20 20 21 22 22 21 21 22 22 23 23 22 22 22 22 22 22 21 21 20 20 20 21 22 22 23 22 22 22 23 24 25 25 25 25 24 23 23 22
19 18 19 20 20 20 20 21 21 21 21 21 21 21 22 22 22 22 22 22 22 23 23 23 23 23 23 24 25 26 26 26 25 26 27 28 28 28 28 27 26 26 25
16 17 18 18 18 17 17 17 18 18 19 18 19 20 21 22 23 23 23 23 24 24 24 25 25 26 26 28 29 30 30 30 30 30 31 31 32 31 31 30 29 28 27
14 15 15 15 15 15 15 15 16 16 16 16 17 19 21 22 23 24 25 25 26 27 28 29 29 30 31 32 33 33 34 34 34 34 34 35 36 35 35 34 34 33 30
12 13 13 14 14 14 14 15 15 14 14 15 16 18 20 22 24 25 27 28 29 31 32 33 33 34 35 37 38 38 38 39 38 38 38 39 39 40 39 38 38 37 35
12 13 14 14 14 14 14 14 14 14 14 14 15 16 18 20 23 25 26 28 29 31 32 33 34 35 37 38 39 41 43 41 40 40 40 40 42 43 43 42 40 39 37
14 14 14 13 13 13 14 14 14 15 15 15 15 16 16 17 19 21 23 24 25 27 27 28 29 30 29 29 30 31 33 34 33 32 32 33 35 38 42 44 43 42 40
17 17 15 13 12 12 12 13 15 16 16 16 17 17 17 17 18 19 20 21 21 22 23 23 24 25 25 26 26 27 27 27 27 28 30 30 30 30 33 36 37 40 41
18 17 14 12 12 12 12 13 15 17 18 18 18 19 19 19 19 20 20 21 21 22 22 23 24 24 24 25 25 26 26 26 27 27 28 28 28 27 26 27 29 30 32
18 17 15 13 13 14 14 15 16 19 20 21 21 21 22 22 22 22 22 23 24 24 25 25 26 26 26 26 27 28 28 29 29 29 29 29 29 28 27 27 27 28 28
17 16 17 17 16 15 16 17 19 21 23 23 23 23 24 24 25 25 25 26 26 27 27 27 28 29 29 29 30 30 30 30 30 30 31 31 31 31 30 29 29 30 30
17 19 21 20 17 16 16 19 21 22 23 23 23 23 24 25 26 27 27 28 28 29 29 29 29 30 31 31 31 32 32 32 33 34 34 34 35 35 35 34 34 34 34
19 21 21 20 16 13 14 17 19 20 21 22 23 24 26 27 29 30 31 31 30 30 32 33 32 32 33 33 33 34 34 36 36 37 38 38 39 40 40 40 40 40 39
21 22 22 19 16 13 14 16 18 21 23 25 26 28 29 31 32 32 33 32 32 33 34 35 36 36 36 37 37 38 39 40 41 41 42 42 43 44 44 44 44 45 45
25 24 21 20 23 20 18 20 21 23 24 26 28 29 31 32 34 34 35 35 35 35 36 38 39 41 42 43 44 44 45 45 46 46 46 46 46 47 47 47 48 48 48
29 27 25 29 28 26 26 25 25 26 26 27 30 31 32 34 36 38 39 40 40 41 41 41 43 45 47 47 48 49 50 50 50 50 50 50 50 50 50 51 51 51 52
32 33 35 34 36 34 32 30 32 31 30 31 33 34 34 36 38 39 41 43 44 45 46 47 48 49 50 51 52 53 53 54 54 55 56 56 56 56 57 57 57 56 56
35 35 37 38 39 37 35 34 34 33 33 34 35 36 37 38 40 41 42 44 45 46 47 49 50 51 53 55 56 57 58 59 60 61 61 62 63 63 63 63 63 63 62
34 36 39 40 39 38 37 36 35 35 35 36 37 37 38 40 41 42 43 44 46 48 50 52 53 55 58 60 61 62 64 65 66 67 67 68 68 68 68 68 68 69 68
35 37 39 39 39 39 39 38 38 38 38 39 40 40 41 42 43 45 46 48 51 53 55 56 59 62 64 67 68 70 71 71 72 72 73 73 73 73 73 74 74 74 74
35 37 38 38 39 39 39 39 40 40 41 42 43 43 44 46 47 49 51 53 55 58 61 63 66 68 71 72 74 77 77 76 77 78 78 78 78 79 79 79 79 79 78
34 36 37 37 38 39 40 41 42 43 44 44 45 47 48 50 52 54 56 57 60 62 64 66 67 69 70 72 74 77 77 77 77 77 79 79 80 80 79 79 78 77 75
34 35 35 37 39 40 42 43 45 46 47 48 50 51 53 55 57 59 60 62 64 65 66 66 65 65 65 66 67 68 69 68 67 65 65 66 66 66 66 66 65 65 63
34 35 36 38 40 43 45 47 48 50 51 53 55 56 58 60 61 63 64 65 65 65 63 62 61 60 59 58 57 56 56 55 53 50 48 46 47 48 48 48 49 50 50
37 38 38 40 43 46 48 50 52 53 55 56 58 59 61 62 64 64 64 64 63 60 58 56 56 55 54 54 53 53 51 48 46 44 43 41 41 41 42 42 43 44 44
Wind_Direction
297 299 300 294 289 286 285 285 286 284 282 282 279 276 274 272 271 271 270 269 266 263 260 259 261 263 266 267 268 269 267 265 263 262 260 258 258 259 259 259 259 258 256
299 296 297 294 288 282 279 278 280 280 279 278 277 275 273 271 270 270 270 269 268 265 263 261 262 264 266 267 267 267 265 263 261 260 260 258 258 258 257 257 257 256 254
298 300 300 298 294 287 280 277 276 277 279 279 276 272 271 270 269 270 271 270 269 268 266 264 263 263 265 266 266 266 265 263 260 260 260 260 260 259 257 256 255 254 252
302 305 305 304 300 294 287 282 278 278 280 280 275 270 267 266 267 268 270 270 270 268 267 266 265 266 266 266 266 267 267 265 263 262 262 262 261 258 256 254 253 251 248
309 313 314 312 307 300 294 289 285 284 282 279 276 271 267 264 264 266 268 268 268 267 266 266 266 267 267 266 266 266 266 266 264 263 263 263 262 259 256 254 252 248 245
322 326 326 322 316 307 299 295 293 292 287 280 276 273 268 266 266 266 267 267 268 268 267 266 266 268 268 268 266 266 266 266 265 264 262 262 262 261 257 254 252 248 243
333 330 327 324 319 314 308 307 306 306 303 296 287 281 275 271 270 271 272 273 272 271 270 269 268 269 270 271 271 270 268 268 268 267 267 266 263 260 257 254 251 247 244
330 322 317 317 317 317 317 317 319 319 317 312 305 300 293 288 288 287 284 282 280 279 278 278 276 274 275 278 276 278 276 274 274 273 275 277 273 267 261 258 254 249 247
329 320 313 309 309 313 317 321 323 325 323 320 316 313 309 305 301 298 296 291 288 285 283 282 281 279 278 278 279 280 280 280 279 277 278 281 281 277 271 265 262 256 252
328 323 317 313 304 308 314 319 321 322 321 320 319 319 316 313 310 306 302 297 292 288 286 284 282 280 279 278 278 278 279 279 278 276 277 277 278 280 281 278 273 268 263
320 316 312 310 305 302 307 310 312 312 312 312 314 314 314 312 311 310 306 303 298 293 288 284 282 280 279 278 278 278 278 278 277 277 277 278 278 278 277 277 276 274 272
317 318 317 305 298 294 296 300 303 305 306 307 308 308 308 308 309 309 309 308 305 300 294 287 282 280 278 277 276 277 277 278 278 279 279 279 279 278 275 272 269 267 267
317 317 317 306 296 292 291 296 301 303 304 304 304 304 304 304 305 306 306 308 308 306 302 295 287 283 280 279 279 279 280 280 280 280 279 278 277 276 275 272 269 266 263
318 316 313 306 302 301 301 302 304 305 304 301 302 302 302 302 303 304 305 305 307 306 303 300 293 287 284 282 281 281 281 280 279 278 277 276 275 274 273 271 269 267 264
317 314 314 315 315 316 314 311 308 306 304 303 304 304 304 303 304 306 307 304 303 303 300 297 293 288 285 283 282 281 281 281 280 279 277 275 273 271 270 269 268 267 265
320 316 316 327 333 328 327 319 315 311 309 308 308 308 307 305 304 304 303 301 299 297 295 292 287 284 282 282 282 283 283 283 282 281 278 275 272 270 268 266 265 264 263
325 324 326 332 337 334 328 324 321 319 316 314 312 310 308 307 305 303 302 301 299 297 295 292 289 287 285 284 284 284 284 284 284 282 279 276 274 272 270 268 266 265 263
326 326 326 330 332 329 325 323 322 319 318 317 315 313 310 308 306 304 302 301 300 298 296 294 292 290 288 286 284 284 284 285 285 283 281 279 278 277 277 275 272 269 266
322 323 322 324 323 322 320 319 318 317 316 316 314 312 309 307 304 303 302 300 299 297 296 295 292 290 289 288 287 286 286 286 285 284 282 281 281 280 280 279 277 275 273
317 317 317 317 317 317 316 316 315 315 315 314 313 311 308 307 306 304 302 301 299 298 297 295 292 292 290 289 287 286 286 285 283 282 282 281 280 280 279 279 278 277 276
313 313 314 314 315 315 314 314 315 316 316 315 313 312 309 307 306 304 301 300 299 298 297 295 293 292 290 289 287 285 285 284 283 282 281 280 279 278 277 277 277 276 275
310 312 314 315 314 313 314 315 316 316 315 314 312 310 308 306 304 302 300 299 299 298 297 295 293 292 291 290 289 288 287 284 283 283 282 280 278 277 276 276 276 276 275
308 312 313 313 313 314 315 316 316 315 313 312 310 308 307 305 304 303 301 300 299 299 297 296 295 294 294 293 292 290 289 288 285 282 280 278 277 276 275 274 274 274 274
306 310 312 313 315 316 316 316 315 314 313 311 309 308 306 305 304 303 303 302 302 301 300 299 298 297 296 295 294 293 292 292 290 287 283 280 278 276 275 274 273 272 271
303 308 311 314 315 316 316 316 315 314 313 311 310 309 308 307 306 305 304 303 302 301 300 300 300 300 299 299 298 297 297 297 296 295 292 287 283 280 278 275 273 271 270
297 303 308 311 313 315 315 315 314 313 313 311 310 309 307 306 306 305 303 302 301 300 300 301 301 301 301 300 300 300 299 298 297 296 295 292 288 284 280 277 274 271 270
Height
5907 5906 5905 5905 5904 5904 5904 5904 5904 5904 5903 5902 5902 5902 5902 5902 5902 5902 5902 5902 5902 5902 5901 5901 5901 5900 5900 5900 5899 5898 5898 5898 5897 5897 5896 5895 5894 5893 5893 5892 5892 5892 5891
5905 5904 5903 5902 5901 5901 5901 5901 5901 5901 5900 5900 5899 5899 5899 5899 5899 5899 5899 5899 5898 5898 5898 5898 5897 5897 5897 5896 5896 5895 5895 5894 5894 5893 5892 5891 5891 5890 5890 5889 5889 5889 5888
5902 5900 5899 5898 5897 5897 5897 5897 5897 5897 5897 5897 5896 5896 5896 5896 5896 5896 5896 5895 5895 5894 5894 5894 5893 5893 5892 5892 5891 5891 5891 5890 5890 5889 5888 5887 5887 5887 5886 5886 5885 5885 5884
5898 5896 5895 5894 5893 5893 5893 5893 5894 5894 5894 5893 5893 5892 5892 5892 5892 5892 5892 5892 5892 5891 5891 5890 5889 5889 5888 5887 5886 5886 5886 5886 5885 5884 5883 5882 5882 5882 5882 5881 5881 5880 5880
5894 5893 5892 5891 5890 5890 5890 5890 5890 5890 5890 5889 5889 5889 5889 5889 5889 5889 5889 5888 5888 5888 5887 5886 5885 5884 5883 5882 5881 5880 5880 5881 5880 5879 5878 5877 5876 5876 5876 5876 5875 5875 5874
5891 5890 5890 5889 5889 5888 5887 5887 5887 5887 5886 5886 5886 5885 5885 5885 5885 5885 5884 5884 5883 5883 5882 5881 5881 5880 5878 5877 5876 5874 5874 5874 5874 5873 5872 5871 5870 5870 5870 5869 5868 5868 5868
5889 5888 5888 5887 5887 5886 5885 5885 5884 5884 5884 5883 5883 5882 5882 5882 5881 5881 5880 5879 5878 5877 5876 5876 5875 5874 5873 5871 5870 5868 5867 5867 5867 5866 5865 5864 5863 5862 5862 5862 5861 5861 5861
5888 5887 5886 5885 5885 5884 5884 5883 5882 5881 5881 5881 5880 5880 5879 5879 5878 5877 5876 5875 5874 5872 5871 5870 5869 5868 5866 5864 5863 5861 5860 5860 5860 5858 5857 5856 5855 5854 5854 5854 5854 5854 5854
5887 5886 5885 5884 5883 5882 5882 5881 5880 5879 5879 5878 5878 5877 5876 5875 5874 5873 5872 5870 5869 5867 5866 5865 5863 5862 5860 5858 5857 5855 5853 5853 5853 5851 5850 5849 5847 5847 5846 5846 5846 5846 5847
5885 5884 5883 5882 5882 5881 5879 5878 5878 5877 5876 5875 5875 5874 5873 5871 5870 5869 5867 5866 5864 5863 5861 5860 5858 5856 5855 5853 5851 5849 5847 5846 5845 5845 5843 5842 5840 5839 5839 5838 5838 5838 5839
5883 5881 5880 5880 5879 5878 5877 5876 5875 5873 5872 5871 5870 5869 5868 5867 5865 5864 5863 5861 5860 5858 5856 5854 5852 5850 5849 5847 5845 5843 5841 5840 5839 5838 5837 5835 5834 5833 5832 5831 5831 5831 5831
5880 5878 5878 5878 5876 5875 5874 5873 5871 5870 5868 5867 5866 5864 5863 5861 5860 5858 5857 5856 5854 5852 5851 5848 5846 5844 5842 5840 5839 5837 5835 5834 5832 5831 5830 5828 5827 5826 5825 5824 5824 5823 5823
5877 5875 5874 5874 5873 5872 5871 5870 5868 5866 5864 5862 5861 5860 5858 5856 5855 5853 5851 5849 5847 5846 5844 5842 5840 5837 5835 5834 5832 5830 5828 5826 5825 5824 5822 5821 5820 5818 5817 5816 5816 5815 5815
5874 5872 5871 5870 5869 5868 5867 5866 5864 5863 5861 5859 5857 5855 5853 5851 5849 5847 5844 5842 5840 5838 5836 5834 5832 5830 5828 5826 5824 5822 5820 5819 5817 5816 5814 5813 5811 5810 5808 5807 5807 5806 5806
5869 5867 5867 5866 5864 5864 5863 5862 5861 5859 5857 5854 5852 5849 5847 5845 5843 5840 5838 5835 5833 5831 5828 5826 5825 5822 5820 5818 5816 5814 5812 5810 5808 5806 5805 5803 5801 5799 5798 5797 5796 5795 5795
5865 5861 5861 5860 5860 5859 5858 5858 5856 5854 5851 5848 5845 5843 5840 5838 5836 5834 5831 5829 5826 5824 5821 5818 5816 5814 5811 5809 5806 5804 5801 5799 5797 5795 5792 5791 5789 5787 5786 5785 5784 5783 5782
5862 5858 5856 5855 5854 5853 5853 5851 5849 5847 5845 5842 5838 5835 5833 5830 5827 5824 5822 5819 5816 5814 5811 5808 5805 5802 5800 5797 5794 5791 5789 5786 5784 5781 5779 5777 5775 5773 5772 5771 5770 5769 5768
5859 5856 5853 5851 5850 5848 5847 5845 5843 5840 5837 5834 5831 5828 5825 5821 5818 5815 5812 5809 5805 5802 5799 5796 5793 5789 5786 5784 5781 5779 5776 5773 5770 5767 5765 5762 5760 5757 5755 5754 5753 5752 5753
5856 5854 5851 5849 5847 5846 5844 5841 5838 5835 5832 5828 5825 5821 5817 5814 5810 5807 5803 5800 5796 5792 5789 5785 5781 5778 5774 5771 5768 5765 5763 5760 5756 5753 5750 5746 5743 5740 5738 5735 5734 5733 5733
5853 5850 5848 5846 5843 5841 5839 5836 5832 5829 5825 5822 5818 5814 5810 5806 5802 5798 5794 5790 5786 5782 5778 5774 5770 5765 5761 5757 5754 5751 5748 5744 5741 5737 5733 5729 5726 5722 5719 5717 5715 5713 5713
5849 5847 5844 5841 5838 5835 5832 5829 5825 5821 5817 5813 5809 5805 5801 5797 5793 5789 5785 5781 5776 5771 5766 5761 5756 5751 5746 5740 5736 5732 5730 5726 5722 5717 5713 5709 5706 5702 5699 5697 5694 5693 5692
5845 5842 5839 5835 5832 5829 5825 5822 5817 5813 5808 5804 5800 5796 5792 5788 5784 5779 5774 5769 5764 5758 5752 5746 5741 5735 5728 5721 5714 5709 5707 5708 5703 5696 5691 5686 5682 5679 5676 5674 5672 5670 5670
5841 5837 5833 5830 5826 5822 5818 5814 5809 5805 5801 5797 5792 5788 5783 5777 5772 5767 5761 5755 5749 5743 5736 5729 5722 5716 5709 5702 5693 5686 5681 5679 5677 5675 5667 5661 5657 5654 5652 5650 5648 5648 5647
5836 5832 5828 5823 5819 5815 5810 5806 5802 5797 5793 5788 5783 5777 5771 5765 5759 5753 5747 5740 5733 5726 5719 5711 5704 5697 5691 5684 5677 5668 5661 5654 5649 5646 5643 5637 5633 5630 5628 5627 5627 5627 5627
5830 5826 5821 5816 5811 5806 5802 5797 5793 5788 5783 5777 5771 5765 5759 5752 5745 5739 5732 5724 5717 5710 5703 5695 5688 5681 5674 5667 5660 5653 5646 5639 5631 5625 5622 5619 5616 5613 5611 5610 5610 5610 5610
5823 5819 5814 5808 5804 5799 5794 5790 5784 5779 5773 5767 5760 5753 5746 5739 5732 5725 5718 5710 5703 5695 5688 5681 5674 5668 5661 5654 5647 5641 5634 5628 5621 5615 5610 5607 5604 5602 5600 5598 5596 5596 5596